| time (UTC) | temp C | wind direction | speed KPH | gust KPH | rain 1hr cm | rain 24hr cm | rain mn cm | humidity % | barometer mb |
| 20260505123001 | 10 | 110 | 0.0 | 0.0 | 0.00 | 0.00 | 0.00 | 73 | 1019.7 |
| 20260505122001 | 10 | 146 | 0.0 | 0.0 | 0.00 | 0.00 | 0.00 | 72 | 1019.4 |
| 20260505121001 | 11 | 118 | 0.0 | 0.0 | 0.00 | 0.00 | 0.00 | 71 | 1019.4 |
| 20260505120001 | 11 | 139 | 0.0 | 0.0 | 0.00 | 0.00 | 0.00 | 70 | 1019.2 |
| 20260505115001 | 11 | 109 | 0.0 | 0.0 | 0.00 | 0.00 | 0.00 | 70 | 1019.0 |
| 20260505114001 | 11 | 62 | 0.0 | 0.0 | 0.00 | 0.00 | 0.00 | 70 | 1019.0 |
| 20260505113002 | 11 | 249 | 0.0 | 0.0 | 0.00 | 0.00 | 0.00 | 70 | 1018.8 |
| 20260505112001 | 12 | 219 | 0.0 | 0.0 | 0.00 | 0.00 | 0.00 | 69 | 1018.6 |
| 20260505111002 | 12 | 221 | 0.0 | 0.0 | 0.00 | 0.00 | 0.00 | 69 | 1018.6 |
| 20260505102002 | 13 | 209 | 0.0 | 0.0 | 0.00 | 0.00 | 0.00 | 68 | 1017.5 |
| 20260505101002 | 13 | 223 | 0.0 | 0.0 | 0.00 | 0.00 | 0.00 | 67 | 1017.4 |
| 20260505100000 | 14 | 157 | 0.0 | 0.0 | 0.00 | 0.00 | 0.00 | 66 | 1017.2 |
| 20260505095000 | 14 | 204 | 0.0 | 0.0 | 0.00 | 0.00 | 0.00 | 65 | 1017.0 |
| 20260505094002 | 15 | 268 | 0.0 | 0.0 | 0.00 | 0.00 | 0.00 | 63 | 1016.9 |
| 20260505093000 | 15 | 205 | 0.0 | 0.0 | 0.00 | 0.00 | 0.00 | 63 | 1016.7 |
| 20260505092001 | 15 | 144 | 0.0 | 0.0 | 0.00 | 0.00 | 0.00 | 61 | 1016.6 |
| 20260505091000 | 16 | 208 | 0.0 | 0.0 | 0.00 | 0.00 | 0.00 | 60 | 1016.6 |
| 20260505090001 | 16 | 207 | 0.0 | 0.0 | 0.00 | 0.00 | 0.00 | 59 | 1016.4 |
| 20260505085001 | 17 | 212 | 0.0 | 0.0 | 0.00 | 0.00 | 0.00 | 57 | 1016.3 |
| 20260505084000 | 17 | 231 | 0.0 | 0.0 | 0.00 | 0.00 | 0.00 | 55 | 1016.3 |
| 20260505083000 | 18 | 214 | 0.0 | 0.0 | 0.00 | 0.00 | 0.00 | 53 | 1016.2 |
| 20260505082002 | 19 | 103 | 0.0 | 0.0 | 0.00 | 0.00 | 0.00 | 52 | 1016.0 |
| 20260505081002 | 19 | 202 | 0.0 | 0.0 | 0.00 | 0.00 | 0.00 | 51 | 1016.0 |
| 20260505080002 | 19 | 88 | 0.0 | 0.0 | 0.00 | 0.00 | 0.00 | 48 | 1015.9 |
| 20260505075000 | 20 | 137 | 0.0 | 0.0 | 0.00 | 0.00 | 0.00 | 45 | 1015.7 |
| 20260505074000 | 20 | 206 | 0.0 | 0.0 | 0.00 | 0.00 | 0.00 | 43 | 1015.7 |
| 20260505073001 | 21 | 34 | 0.0 | 0.0 | 0.00 | 0.00 | 0.00 | 40 | 1015.6 |
| 20260505072000 | 21 | 133 | 0.0 | 0.0 | 0.00 | 0.00 | 0.00 | 37 | 1015.4 |
| 20260505071000 | 21 | 122 | 0.0 | 0.0 | 0.00 | 0.00 | 0.00 | 34 | 1015.4 |
| 20260505070001 | 21 | 72 | 0.0 | 0.0 | 0.00 | 0.00 | 0.00 | 35 | 1015.3 |
| 20260505065001 | 21 | 65 | 0.0 | 0.0 | 0.00 | 0.00 | 0.00 | 34 | 1015.4 |
| 20260505064000 | 21 | 132 | 0.0 | 0.0 | 0.00 | 0.00 | 0.00 | 33 | 1015.4 |
| 20260505063001 | 21 | 123 | 0.0 | 0.0 | 0.00 | 0.00 | 0.00 | 32 | 1015.4 |
| 20260505062001 | 21 | 146 | 0.0 | 0.0 | 0.00 | 0.00 | 0.00 | 29 | 1015.4 |
| 20260505061000 | 21 | 124 | 0.0 | 0.0 | 0.00 | 0.00 | 0.00 | 28 | 1015.4 |
| 20260505060001 | 21 | 146 | 0.0 | 0.0 | 0.00 | 0.00 | 0.00 | 30 | 1015.3 |
| 20260505055000 | 21 | 150 | 0.0 | 0.0 | 0.00 | 0.00 | 0.00 | 30 | 1015.3 |
| 20260505054000 | 21 | 91 | 0.0 | 0.0 | 0.00 | 0.00 | 0.00 | 30 | 1015.3 |
| 20260505053000 | 21 | 156 | 0.0 | 0.0 | 0.00 | 0.00 | 0.00 | 28 | 1015.5 |
| 20260505052001 | 21 | 165 | 0.0 | 0.0 | 0.00 | 0.00 | 0.00 | 29 | 1015.6 |
| 20260505051000 | 20 | 176 | 0.0 | 0.0 | 0.00 | 0.00 | 0.00 | 31 | 1015.6 |
| 20260505041001 | 19 | 189 | 0.0 | 0.0 | 0.00 | 0.00 | 0.00 | 32 | 1016.0 |
| 20260505040001 | 18 | 102 | 0.0 | 0.0 | 0.00 | 0.00 | 0.00 | 30 | 1016.1 |
| 20260505035001 | 18 | 132 | 0.0 | 0.0 | 0.00 | 0.00 | 0.00 | 27 | 1016.2 |
| 20260505034001 | 18 | 104 | 0.0 | 0.0 | 0.00 | 0.00 | 0.00 | 29 | 1016.2 |
| 20260505033000 | 18 | 145 | 0.0 | 0.0 | 0.00 | 0.00 | 0.00 | 26 | 1016.4 |
| 20260505032000 | 18 | 236 | 0.0 | 0.0 | 0.00 | 0.00 | 0.00 | 26 | 1016.3 |
| 20260505031000 | 17 | 95 | 0.0 | 0.0 | 0.00 | 0.00 | 0.00 | 30 | 1016.3 |
| 20260505030002 | 17 | 178 | 0.0 | 0.0 | 0.00 | 0.00 | 0.00 | 28 | 1016.4 |
| 20260505025001 | 17 | 215 | 0.0 | 0.0 | 0.00 | 0.00 | 0.00 | 29 | 1016.4 |
| 20260505024002 | 17 | 171 | 0.0 | 0.0 | 0.00 | 0.00 | 0.00 | 30 | 1016.4 |
| 20260505023001 | 16 | 102 | 0.0 | 0.0 | 0.00 | 0.00 | 0.00 | 32 | 1016.5 |
| 20260505022001 | 16 | 137 | 0.0 | 0.0 | 0.00 | 0.00 | 0.00 | 34 | 1016.7 |
| 20260505021001 | 16 | 244 | 0.0 | 0.0 | 0.00 | 0.00 | 0.00 | 26 | 1016.7 |
| 20260505020002 | 16 | 155 | 0.0 | 0.0 | 0.00 | 0.00 | 0.00 | 28 | 1016.8 |
| 20260505015000 | 15 | 165 | 0.0 | 0.0 | 0.00 | 0.00 | 0.00 | 27 | 1016.9 |
| 20260505014001 | 15 | 117 | 0.0 | 0.0 | 0.00 | 0.00 | 0.00 | 31 | 1016.9 |
| 20260505013002 | 14 | 287 | 0.0 | 0.0 | 0.00 | 0.00 | 0.00 | 29 | 1017.1 |
| 20260505012000 | 14 | 41 | 0.0 | 0.0 | 0.00 | 0.00 | 0.00 | 27 | 1017.2 |
| 20260505011000 | 14 | 173 | 0.0 | 0.0 | 0.00 | 0.00 | 0.00 | 33 | 1017.2 |
| 20260505010000 | 14 | 188 | 0.0 | 0.0 | 0.00 | 0.00 | 0.00 | 34 | 1017.2 |
| 20260505005000 | 13 | 254 | 0.0 | 0.0 | 0.00 | 0.00 | 0.00 | 33 | 1017.3 |
| 20260505004001 | 13 | 253 | 0.0 | 0.0 | 0.00 | 0.00 | 0.00 | 34 | 1017.3 |
| 20260505003000 | 12 | 139 | 0.0 | 0.0 | 0.00 | 0.00 | 0.00 | 37 | 1017.2 |
| 20260505002001 | 12 | 150 | 0.0 | 0.0 | 0.00 | 0.00 | 0.00 | 37 | 1017.3 |
| 20260505001001 | 11 | 211 | 0.0 | 0.0 | 0.00 | 0.00 | 0.00 | 41 | 1017.3 |
| 20260505000000 | 11 | 111 | 0.0 | 0.0 | 0.00 | 0.00 | 0.00 | 40 | 1017.1 |
| 20260504235000 | 11 | 155 | 0.0 | 0.0 | 0.00 | 0.00 | 0.00 | 43 | 1017.1 |
| 20260504234000 | 10 | 147 | 0.0 | 0.0 | 0.00 | 0.00 | 0.00 | 43 | 1017.1 |
| 20260504233000 | 10 | 280 | 0.0 | 0.0 | 0.00 | 0.00 | 0.00 | 45 | 1017.1 |
| 20260504232001 | 10 | 295 | 0.0 | 0.0 | 0.00 | 0.00 | 0.00 | 46 | 1017.0 |
| 20260504231000 | 9 | 295 | 0.0 | 0.0 | 0.00 | 0.00 | 0.00 | 45 | 1017.0 |
| 20260504230001 | 8 | 302 | 0.0 | 0.0 | 0.00 | 0.00 | 0.00 | 42 | 1017.0 |
| 20260504225001 | 8 | 303 | 0.0 | 0.0 | 0.00 | 0.00 | 0.00 | 58 | 1016.8 |
| 20260504224001 | 7 | 148 | 0.0 | 0.0 | 0.00 | 0.00 | 0.00 | 67 | 1016.8 |
| 20260504223000 | 6 | 137 | 0.0 | 0.0 | 0.00 | 0.00 | 0.00 | 71 | 1016.7 |
| 20260504222002 | 6 | 212 | 0.0 | 0.0 | 0.00 | 0.00 | 0.00 | 76 | 1016.5 |
| 20260504221000 | 5 | 124 | 0.0 | 0.0 | 0.00 | 0.00 | 0.00 | 79 | 1016.5 |
| 20260504220000 | 5 | 203 | 0.0 | 0.0 | 0.00 | 0.00 | 0.00 | 79 | 1016.5 |
| 20260504215000 | 5 | 280 | 0.0 | 0.0 | 0.00 | 0.00 | 0.00 | 81 | 1016.4 |
| 20260504214001 | 5 | 148 | 0.0 | 0.0 | 0.00 | 0.00 | 0.00 | 82 | 1016.4 |
| 20260504213000 | 4 | 9 | 0.0 | 0.0 | 0.00 | 0.00 | 0.00 | 83 | 1016.2 |
| 20260504212001 | 4 | 161 | 0.0 | 0.0 | 0.00 | 0.00 | 0.00 | 83 | 1016.1 |
| 20260504211001 | 3 | 152 | 0.0 | 0.0 | 0.00 | 0.05 | 0.00 | 84 | 1016.1 |
| 20260504210001 | 3 | 152 | 0.0 | 0.0 | 0.00 | 0.08 | 0.00 | 85 | 1015.7 |
| 20260504205000 | 3 | 282 | 0.0 | 0.0 | 0.00 | 0.10 | 0.00 | 86 | 1015.5 |
| 20260504204001 | 3 | 289 | 0.0 | 0.0 | 0.00 | 0.10 | 0.00 | 84 | 1015.4 |
| 20260504203000 | 3 | 117 | 0.0 | 0.0 | 0.00 | 0.13 | 0.00 | 83 | 1015.1 |
| 20260504202000 | 3 | 264 | 0.0 | 0.0 | 0.00 | 0.15 | 0.00 | 82 | 1014.9 |
| 20260504201000 | 3 | 250 | 0.0 | 0.0 | 0.00 | 0.18 | 0.00 | 82 | 1014.9 |
| 20260504200000 | 3 | 289 | 0.0 | 0.0 | 0.00 | 0.23 | 0.00 | 81 | 1014.6 |
| 20260504195000 | 3 | 281 | 0.0 | 0.0 | 0.00 | 0.30 | 0.00 | 81 | 1014.4 |
| 20260504194000 | 4 | 249 | 0.0 | 0.0 | 0.00 | 0.38 | 0.00 | 82 | 1014.3 |
| 20260504193001 | 4 | 246 | 0.0 | 0.0 | 0.00 | 0.48 | 0.00 | 81 | 1014.2 |
| 20260504192000 | 4 | 283 | 0.0 | 0.0 | 0.00 | 0.53 | 0.00 | 80 | 1014.1 |
| 20260504191000 | 4 | 270 | 0.0 | 0.0 | 0.00 | 0.66 | 0.00 | 79 | 1014.1 |
| 20260504190000 | 4 | 291 | 0.0 | 0.0 | 0.00 | 0.76 | 0.00 | 77 | 1013.8 |
| 20260504185001 | 5 | 174 | 0.0 | 0.0 | 0.00 | 0.89 | 0.00 | 77 | 1013.6 |
| 20260504184000 | 5 | 121 | 0.0 | 0.0 | 0.00 | 0.94 | 0.00 | 76 | 1013.6 |
| 20260504183001 | 5 | 295 | 0.0 | 0.0 | 0.00 | 0.94 | 0.00 | 75 | 1013.3 |
| 20260504182001 | 5 | 151 | 0.0 | 0.0 | 0.00 | 0.99 | 0.00 | 73 | 1013.1 |
| 20260504181000 | 6 | 141 | 0.0 | 0.0 | 0.00 | 1.04 | 0.00 | 71 | 1013.1 |
| 20260504180000 | 6 | 302 | 0.0 | 0.0 | 0.00 | 1.09 | 0.00 | 68 | 1012.7 |
| 20260504175001 | 6 | 307 | 0.0 | 0.0 | 0.00 | 1.14 | 0.00 | 67 | 1012.6 |
| 20260504174001 | 6 | 321 | 0.0 | 0.0 | 0.00 | 1.27 | 0.00 | 69 | 1012.6 |
| 20260504173001 | 6 | 143 | 0.0 | 0.0 | 0.00 | 1.37 | 0.00 | 66 | 1012.1 |
| 20260504172001 | 6 | 310 | 0.0 | 0.0 | 0.00 | 1.45 | 0.00 | 67 | 1012.2 |
| 20260504171000 | 6 | 310 | 0.0 | 0.0 | 0.00 | 1.55 | 0.00 | 68 | 1012.2 |
| 20260504151001 | 7 | 298 | 0.0 | 0.0 | 0.00 | 2.54 | 0.00 | 70 | 1010.1 |
| 20260504141001 | 8 | 302 | 0.0 | 0.0 | 0.00 | 2.92 | 2.59 | 60 | 1009.2 |